This is the latest recevied weather packets stored in our database for station/object K5NWZ. If no packets are shown the sender has not sent any weather packets the latest 10 day(s).
| Time | Temp. | Humidity | Pressure | Rain* | Wind** | Luminosity | Snow |
|---|---|---|---|---|---|---|---|
| 1778093603 | 3.33° C | 69% | 1029.7 hPa | 3.56 mm | - | 327 W/m² | - |
| 1778093300 | 3.33° C | 68% | 1029.8 hPa | 3.05 mm | - | 316 W/m² | - |
| 1778092997 | 3.89° C | 68% | 1029.8 hPa | 3.05 mm | - | 301 W/m² | - |
| 1778092695 | 3.33° C | 66% | 1029.6 hPa | 3.05 mm | - | 285 W/m² | - |
| 1778092389 | 3.33° C | 68% | 1029.7 hPa | 3.05 mm | - | 273 W/m² | - |
| 1778092087 | 3.89° C | 68% | 1029.8 hPa | 3.05 mm | - | 293 W/m² | - |
| 1778091784 | 3.89° C | 68% | 1029.8 hPa | 4.32 mm | - | 329 W/m² | - |
| 1778091481 | 3.33° C | 70% | 1029.9 hPa | 4.83 mm | - | 382 W/m² | - |
| 1778091179 | 4.44° C | 69% | 1030.3 hPa | 4.83 mm | - | 440 W/m² | - |
| 1778090876 | 3.89° C | 61% | 1029.8 hPa | 3.05 mm | - | 500 W/m² | - |
| 1778090571 | 4.44° C | 67% | 1029.9 hPa | 3.05 mm | - | 851 W/m² | - |
| 1778090268 | 4.44° C | 61% | 1029.8 hPa | 3.56 mm | - | 668 W/m² | - |
| 1778089965 | 3.89° C | 60% | 1029.7 hPa | 3.05 mm | - | 1013 W/m² | - |
| 1778089662 | 3.89° C | 69% | 1029.8 hPa | 3.05 mm | - | 900 W/m² | - |
| 1778089360 | 3.33° C | 73% | 1030.1 hPa | 3.05 mm | - | 907 W/m² | - |
| 1778089057 | 2.78° C | 75% | 1029.8 hPa | 3.05 mm | - | 254 W/m² | - |
| 1778088754 | 3.33° C | 72% | 1029.9 hPa | 3.05 mm | - | 1064 W/m² | - |
| 1778088451 | 3.33° C | 73% | 1029.8 hPa | 1.27 mm | - | 390 W/m² | - |
| 1778088147 | 3.89° C | 70% | 1029.8 hPa | 1.78 mm | - | 352 W/m² | - |
| 1778087845 | 5° C | 62% | 1029.9 hPa | 3.05 mm | - | 307 W/m² | - |
| 1778087542 | 3.33° C | 70% | 1029.9 hPa | 1.27 mm | - | 319 W/m² | - |
| 1778087239 | 2.78° C | 77% | 1029.7 hPa | 1.78 mm | - | 269 W/m² | - |
| 1778086936 | 2.22° C | 76% | 1029.8 hPa | 1.78 mm | - | 220 W/m² | - |
| 1778086634 | 2.78° C | 72% | 1029.8 hPa | 1.27 mm | - | 221 W/m² | - |
| 1778086331 | 2.78° C | 76% | 1029.8 hPa | 1.27 mm | - | 238 W/m² | - |
* Rain latest hour (hover to see other rain measurements)
** Current wind speed in m/s (hover to see current wind gust speed)